星链-37103(STARLINK-37103)

导读

STARLINK-37103(NORAD编号68267)是SpaceX星链互联网星座中的一颗低轨卫星,于近年发射入轨,运行在距离地面约560公里的近地轨道,为全球提供宽带互联网通信服务。2026年3月底,该卫星在轨道运行时突发异常,与地面失去通信联系。经地面雷达观测机构LeoLabs分析,此次异常大概率由卫星内部能量源问题引发,而非外部碰撞导致。卫星解体产生的数十块碎片将在数周内逐渐再入大气层焚毁,目前SpaceX仍在对事故原因开展调查,这也是近两年内星链星座发生的第二起类似解体事件。

基本信息
目录编号:
68267
目录名称:
STARLINK-37103
国际标识:
2026-055F
轨道中心:
EARTH
卫星名称:
星链-37103
卫星全名:
星链-37103(STARLINK-37103)
卫星状态:
在轨 (已飞行177 天)
发射日期:
2026-03-19 UTC
国别 :
美国 (US)
星等 :
--
该卫星已列入 空间交会检测服务 Space Conjunction Data Service (SCDS) ,当前飞行风险评估等级: 高风险
轨道信息
数据来源 国际轨道数据
星历时间: 2026-09-11T19:40:56+0800
15小时前
查看轨道信息
半长轴: 6840.863km
偏心率: 0.0001176
轨道倾角: 53.159°
近地点辐角 87.880°
升交点赤经 171.552°
平近点角 272.234°
近地点: 461.921km
远地点: 463.531km
周期: 93.848分钟
每日圈数: 15.343926
详细信息
固有亮度:
5
最大亮度:
2.5
卫星平台:
Starlink V1.0
覆盖范围:
全球
运营商:
太空探索技术公司
运营商所在国:
美国
制造商(研发单位):
太空探索技术公司
制造商所在国:
美国
使用方式:
暂无
卫星简介
Starlink 计划是 SpaceX 推出的全球卫星互联网项目,通过发射低轨道卫星,为全球尤其是偏远地区提供高速、低延迟的互联网服务。自 2019 年起,Starlink 已部署数千颗卫星,旨在缩小全球数字鸿沟,推动互联网普及。该项目还为军事、航空等行业提供通信支持,带来广泛经济效益。
2D轨道图
3D轨道图
轨道高度分析图
轨道倾角分析图
轨道综合分析图
查看轨道综合分析图
交会数据列表
事件ID 空间交会对象 最接近时刻(TCA) 交会距离 交会风险概率(CRP) 交会风险指数(CRI) 操作
CDM_260911-090206-409706-826721
2026-09-11T
09:02:23+0000
0.310 km
远距离
3.447613E-4 高风险 0.86
CDM_260914-115206-606806-826721
2026-09-14T
11:52:41+0000
0.484 km
远距离
1.44264E-4 高风险 0.78
CDM_260914-080506-244306-826721
2026-09-14T
08:05:55+0000
0.586 km
远距离
4.209922E-5 中风险 0.67
CDM_260911-103606-410006-826721
2026-09-11T
10:36:31+0000
1.049 km
极远距离
1.380691E-5 中风险 0.58
CDM_260911-103606-409706-826721
2026-09-11T
10:36:10+0000
1.141 km
极远距离
1.000719E-5 中风险 0.55
CDM_260914-063206-244306-826721
2026-09-14T
06:32:07+0000
0.963 km
远距离
8.311739E-6 低风险 0.53
CDM_260914-101806-606806-826721
2026-09-14T
10:18:54+0000
1.376 km
极远距离
5.457151E-6 低风险 0.5
CDM_260914-080603-622506-826721
2026-09-14T
08:06:34+0000
1.943 km
极远距离
2.56584E-6 低风险 0.43
CDM_260914-084506-606806-826721
2026-09-14T
08:45:06+0000
2.354 km
极远距离
1.280088E-6 低风险 0.37
CDM_260914-120006-244306-826721
2026-09-14T
12:00:23+0000
1.763 km
极远距离
1.241285E-6 低风险 0.37
与全量物体交会距离演化趋势
与全量物体交会风险概率演化趋势